Location: *
(58.7167°N, 26.1833°E)
Time: 05:34:19
(UTC+00:00)

Cosmos 1833 - Pass Details

Date: 25 August 2019
Orbit: 834 x 864 km, 70.9° (Epoch: 14 September)

Event Time Altitude Azimuth Distance (km) Brightness Sun altitude
Exits shadow 22:43:48 31° 226° (SW) 1,451 5.0 -20.5°
Maximum altitude 22:46:38 80° 310° (NW) 876 4.2 -20.4°
Drops below altitude 10° 22:52:22 10° 38° (NE) 2,488 7.5 -20.3°
Sets 22:54:50 0° 39° (NE) 3,422 8.4 -20.3°
